Date,TemperatureHighF,TemperatureAvgF,TemperatureLowF,DewpointHighF,DewpointAvgF,DewpointLowF,HumidityHigh,HumidityAvg,HumidityLow,PressureMaxIn,PressureMinIn,WindSpeedMaxMPH,WindSpeedAvgMPH,GustSpeedMaxMPH,PrecipitationSumIn
2012-1-1,43.4,35.7,28.5,39.5,30.7,22.5,94,82,66,30.03,29.54,38,11,38,0.11
2012-1-2,29.0,23.2,20.8,25.2,20.3,17.8,93,89,74,30.33,30.01,26,9,26,0.00
2012-1-3,25.0,20.8,16.6,18.9,14.5,9.9,92,76,59,30.43,30.13,18,4,18,0.09
2012-1-4,40.4,30.7,20.8,29.4,23.1,15.6,84,74,54,30.13,29.93,14,3,14,0.11
2012-1-5,45.3,35.6,22.9,35.2,29.3,20.2,98,78,64,30.05,29.75,12,2,12,0.03
2012-1-6,53.4,42.3,35.2,40.8,35.4,31.4,89,77,60,29.76,29.68,13,1,13,0.00
2012-1-7,44.1,36.6,25.5,34.5,29.9,23.8,95,77,66,30.25,29.76,19,4,19,0.00
2012-1-8,42.3,32.1,23.9,34.0,28.4,22.6,97,87,69,30.39,30.25,11,0,11,0.00
2012-1-9,45.4,34.3,24.5,32.0,27.9,23.4,97,79,53,30.29,29.97,18,3,18,0.00
2012-1-10,52.0,38.4,26.5,37.6,32.0,24.5,96,79,56,30.09,29.83,15,2,18,0.00
2012-1-11,47.7,37.7,28.5,36.4,31.8,27.0,100,80,61,29.83,29.47,7,0,7,0.00
2012-1-12,38.4,29.7,18.5,37.6,28.0,16.4,98,93,88,29.48,29.36,21,4,21,0.01
2012-1-13,22.7,19.0,15.6,21.2,16.8,13.5,94,91,88,30.08,29.48,22,6,22,0.00
2012-1-14,21.6,15.1,6.3,15.8,11.7,4.1,100,86,76,30.29,30.07,9,1,9,0.01
2012-1-15,28.4,17.8,6.0,20.9,13.6,3.7,100,84,70,30.45,30.14,19,3,21,0.00
2012-1-16,43.2,35.8,23.7,42.6,33.0,20.7,98,90,78,30.14,29.69,15,3,15,0.12
2012-1-17,43.6,33.4,21.8,43.3,32.4,18.4,99,96,87,30.20,29.52,29,6,29,0.26
2012-1-18,25.6,20.3,12.1,19.7,16.4,8.7,89,85,76,30.32,29.96,18,4,18,0.10
2012-1-19,26.8,18.7,12.7,24.6,14.5,7.5,94,83,72,30.21,29.83,23,5,23,0.00
2012-1-20,17.2,13.0,5.6,13.3,10.0,2.8,92,88,76,30.28,30.09,14,2,14,0.00
2012-1-21,30.5,18.0,12.2,16.7,12.0,8.7,92,78,55,30.29,30.10,13,1,13,0.21
2012-1-22,43.6,28.8,12.6,43.2,27.6,9.4,100,95,86,30.19,29.52,24,7,24,0.51
2012-1-23,44.4,36.8,30.0,44.1,34.7,24.3,100,92,78,29.93,29.40,31,9,31,0.31
2012-1-24,36.6,30.2,24.5,27.3,25.2,23.0,96,82,68,30.37,29.93,19,4,19,0.00
2012-1-25,33.1,28.9,22.4,29.7,26.7,21.1,97,92,84,30.38,30.07,13,2,13,0.00
2012-1-26,35.6,32.9,30.2,35.2,32.1,28.8,99,97,95,30.08,29.60,9,1,9,0.24
2012-1-27,40.9,36.1,33.0,35.2,29.1,15.0,99,78,37,29.99,29.62,19,4,19,0.03
2012-1-28,33.2,30.5,26.2,32.0,24.6,18.4,97,80,58,30.14,29.81,28,6,28,0.05
2012-1-29,32.3,26.8,15.5,27.1,21.1,13.0,90,79,64,30.27,29.96,29,4,29,0.00
2012-1-30,49.9,35.5,14.8,39.6,29.8,12.5,94,80,65,30.27,29.88,24,5,24,0.01
2012-1-31,55.8,49.3,42.9,49.7,43.5,36.6,95,81,66,29.93,29.81,20,5,20,0.06
2012-2-1,49.0,37.8,29.4,47.6,35.3,28.4,97,91,85,30.17,29.88,10,2,10,0.00
2012-2-2,44.7,35.5,29.2,38.9,33.3,28.4,98,92,79,30.43,30.16,9,0,9,0.00
2012-2-3,40.7,35.9,29.2,38.6,34.3,28.4,99,94,87,30.49,30.35,8,0,8,0.00
2012-2-4,42.2,35.1,31.0,38.0,33.2,29.6,100,93,83,30.36,30.17,12,1,12,0.14
2012-2-5,46.2,32.3,24.8,38.2,29.5,23.8,99,90,70,30.30,30.18,10,1,10,0.01
2012-2-6,32.7,29.2,24.2,30.8,27.8,23.2,98,94,90,30.24,30.14,12,3,12,0.00
2012-2-7,36.7,32.7,29.4,34.1,29.9,27.3,97,90,81,30.36,30.20,7,1,8,0.00
2012-2-8,34.3,30.1,23.9,28.3,24.1,20.3,88,78,64,30.38,30.31,11,2,17,0.00
2012-2-9,35.4,27.4,19.7,25.0,21.8,17.8,92,80,63,30.32,30.13,15,2,15,0.00
2012-2-10,34.4,29.4,19.4,32.4,26.1,13.9,95,87,78,30.12,29.87,19,4,19,0.02
2012-2-11,20.0,17.2,14.2,16.8,11.7,5.5,92,79,65,30.38,30.11,30,6,30,0.00
2012-2-12,33.6,23.8,17.0,16.3,12.4,8.6,75,62,37,30.35,30.24,18,6,18,0.17
2012-2-13,35.1,24.9,11.7,26.3,16.9,6.5,94,72,58,30.24,29.92,17,3,17,0.02
2012-2-14,35.0,31.2,27.5,31.7,28.9,26.0,96,91,83,30.06,29.86,12,2,12,0.09
2012-2-15,43.3,36.3,31.7,36.5,33.6,29.6,98,90,76,30.15,29.99,18,4,18,0.17
2012-2-16,45.6,38.6,32.5,38.4,34.3,27.1,99,85,68,30.13,29.95,19,3,19,0.05
2012-2-17,48.8,37.9,25.7,35.5,29.9,23.7,93,74,47,30.18,30.01,16,3,16,0.00
2012-2-18,38.7,32.3,23.3,32.7,25.2,19.9,89,76,54,30.23,30.03,16,2,16,0.00
2012-2-19,41.9,28.2,21.2,24.9,21.3,17.9,95,77,45,30.25,30.15,12,1,12,0.00
2012-2-20,46.3,31.5,18.0,28.6,23.9,16.3,96,76,46,30.35,29.96,20,4,20,0.00
2012-2-21,41.6,36.9,32.8,40.4,33.4,27.1,98,88,72,29.97,29.64,23,4,23,0.17
2012-2-22,36.5,33.5,30.2,35.0,31.9,28.9,98,94,87,29.72,29.44,7,1,8,0.20
2012-2-23,36.2,31.7,25.3,35.8,31.1,24.5,100,98,96,29.61,29.43,13,2,13,0.18
2012-2-24,33.9,31.8,26.5,33.4,29.9,20.8,98,93,79,29.93,29.33,27,7,27,0.22
2012-2-25,31.1,25.5,18.0,21.4,19.1,15.5,90,77,59,30.37,29.92,20,5,20,0.04
2012-2-26,49.1,33.1,16.4,33.3,25.1,14.8,94,74,52,30.37,30.05,28,6,29,0.06
2012-2-27,39.2,33.5,22.4,30.4,24.4,20.3,92,70,57,30.50,30.10,26,5,26,0.00
2012-2-28,50.1,34.6,20.6,36.1,27.5,19.0,96,77,46,30.50,29.88,19,4,19,0.29
2012-2-29,65.1,47.3,35.6,56.4,38.0,30.5,99,75,30,29.89,29.41,32,9,32,0.57
2012-3-1,38.6,35.9,30.6,34.1,32.4,28.8,95,87,80,29.85,29.62,20,3,21,0.00
2012-3-2,46.3,37.3,33.3,43.9,34.8,30.8,96,91,84,29.81,29.17,31,6,31,0.20
2012-3-3,35.2,31.5,29.3,31.1,25.6,23.3,88,78,70,29.83,29.57,28,8,28,0.00
2012-3-4,32.5,29.9,27.1,27.9,24.8,22.4,94,81,71,29.97,29.81,14,3,14,0.00
2012-3-5,36.6,29.6,24.2,26.0,22.1,16.5,94,74,49,30.39,29.97,15,3,15,0.10
2012-3-6,66.3,47.7,28.6,44.6,34.5,24.6,85,63,39,30.32,29.97,28,9,28,0.00
2012-3-7,67.5,58.7,48.8,50.9,42.9,32.1,67,56,46,30.06,29.81,32,9,32,0.00
2012-3-8,62.2,43.9,35.4,54.8,36.3,24.3,95,76,51,30.21,29.78,24,7,24,0.22
2012-3-9,36.9,31.7,23.3,27.7,19.0,11.5,81,60,40,30.56,30.19,26,5,26,0.00
2012-3-10,57.7,39.6,22.6,31.6,24.8,17.7,82,58,32,30.55,30.27,26,5,26,0.00
2012-3-11,71.3,51.4,31.5,40.6,33.4,25.5,80,54,25,30.32,30.07,21,3,21,0.00
2012-3-12,69.7,57.8,49.4,59.4,52.7,39.9,98,84,56,30.08,29.72,24,6,24,0.37
2012-3-13,67.0,54.5,45.4,49.5,37.8,23.6,97,61,21,30.10,29.89,12,2,12,0.00
2012-3-14,83.2,62.7,41.7,62.8,50.2,28.6,95,66,36,30.07,29.93,21,4,21,0.00
2012-3-15,81.5,69.5,60.8,65.8,60.9,57.8,95,76,52,29.99,29.90,16,4,16,0.00
2012-3-16,82.3,67.8,54.0,64.3,58.1,52.9,99,74,47,30.06,29.98,14,3,14,0.00
2012-3-17,80.7,65.8,52.0,61.4,56.0,50.6,98,73,46,30.11,29.98,20,4,20,0.00
2012-3-18,81.0,67.6,58.6,63.3,58.1,55.4,97,74,44,30.07,29.95,12,2,12,0.08
2012-3-19,79.5,67.3,56.7,67.7,61.0,55.1,98,81,58,30.02,29.92,13,2,13,0.02
2012-3-20,85.2,71.9,61.0,62.5,57.4,55.0,84,63,36,30.05,29.94,26,5,26,0.01
2012-3-21,87.3,71.8,58.0,62.1,56.9,53.8,88,63,35,30.11,29.99,25,2,25,0.00
2012-3-22,84.8,69.2,58.3,62.3,58.4,54.6,95,72,40,30.09,29.97,18,2,18,0.09
2012-3-23,64.0,60.4,51.9,62.8,58.9,50.3,98,95,86,30.02,29.78,28,2,28,0.37
2012-3-24,60.1,52.7,49.6,55.8,51.3,48.6,99,95,84,29.90,29.74,10,2,11,0.00
2012-3-25,63.8,52.9,45.4,53.8,47.4,42.6,99,82,64,30.12,29.90,12,3,15,0.01
2012-3-26,55.1,45.1,36.9,42.9,31.7,25.1,92,62,33,30.36,30.11,17,3,17,0.00
2012-3-27,66.2,50.3,34.6,47.1,32.5,19.6,69,51,37,30.29,29.84,18,8,26,0.00
2012-3-28,65.2,57.0,43.4,54.6,44.2,35.6,88,64,38,30.01,29.78,27,4,27,0.00
2012-3-29,51.7,42.9,38.7,38.6,36.0,33.8,92,77,59,30.14,29.98,10,1,11,0.00
2012-3-30,55.9,44.7,39.3,50.9,41.2,36.0,95,88,80,29.99,29.70,24,4,24,0.28
2012-3-31,52.4,42.8,36.7,43.1,38.6,34.8,95,86,69,30.00,29.85,12,2,12,0.00
2012-4-1,67.9,51.3,42.3,58.8,47.2,39.1,96,86,72,29.85,29.66,12,3,12,0.02
2012-4-2,65.5,53.9,44.8,45.9,41.4,37.4,92,65,38,29.96,29.78,24,6,24,0.00
2012-4-3,80.2,55.5,46.1,61.1,45.7,39.3,86,71,47,29.92,29.78,15,4,15,0.00
2012-4-4,63.8,50.3,43.1,44.4,38.6,31.6,90,67,34,29.95,29.87,17,3,18,0.00
2012-4-5,55.9,44.5,36.5,38.7,34.3,31.4,86,69,45,30.15,29.90,15,3,15,0.00
2012-4-6,59.2,44.2,31.6,36.5,30.9,25.2,92,62,34,30.32,30.15,14,2,14,0.00
2012-4-7,68.2,51.2,30.8,43.6,32.1,22.6,91,55,19,30.33,30.11,15,2,15,0.00
2012-4-8,61.9,53.7,46.6,45.7,34.6,24.3,82,53,24,30.24,30.06,19,5,22,0.00
2012-4-9,59.4,51.0,41.4,42.4,32.5,23.1,89,53,25,30.08,29.90,24,4,24,0.02
2012-4-10,41.3,37.8,34.6,30.4,23.8,18.5,65,57,44,30.13,29.99,23,4,23,0.00
2012-4-11,48.1,40.5,31.9,36.8,30.8,23.9,92,69,50,30.28,30.12,17,2,17,0.00
2012-4-12,59.7,45.2,30.0,38.4,32.4,28.5,97,65,37,30.32,30.16,10,1,10,0.00
2012-4-13,66.8,52.3,34.4,40.0,33.2,30.0,84,53,27,30.23,30.03,20,3,20,0.00
2012-4-14,61.7,57.1,49.9,58.1,51.1,36.9,97,81,51,30.06,29.83,14,2,14,0.06
2012-4-15,74.3,66.8,56.7,64.9,60.7,55.8,98,81,69,29.83,29.65,23,5,23,0.27
2012-4-16,64.5,55.6,44.6,62.1,47.9,38.9,96,76,58,30.20,29.55,29,6,29,0.16
2012-4-17,57.0,46.5,36.3,42.0,37.6,33.9,97,73,50,30.37,30.20,11,0,11,0.00
2012-4-18,70.3,55.0,36.1,48.0,41.3,32.8,90,63,41,30.31,29.96,21,2,21,0.00
2012-4-19,77.8,61.0,48.3,55.4,47.8,42.3,89,66,31,29.98,29.70,14,1,19,0.00
2012-4-20,60.3,47.9,40.0,53.4,43.8,38.4,100,87,62,29.95,29.63,19,3,19,0.28
2012-4-21,50.0,43.0,36.3,38.4,34.4,28.6,94,73,46,30.03,29.94,14,1,14,0.00
2012-4-22,53.1,43.7,37.0,37.8,32.8,26.6,84,66,41,30.05,29.97,17,2,18,0.00
2012-4-23,52.4,44.7,34.8,39.4,30.1,19.5,85,59,29,30.03,29.77,21,3,21,0.00
2012-4-24,62.1,50.8,41.6,33.0,28.2,23.6,58,43,25,29.78,29.69,16,3,16,0.00
2012-4-25,55.6,49.7,40.6,52.4,44.4,30.7,92,83,55,29.78,29.62,13,1,13,0.07
2012-4-26,51.7,47.1,38.0,48.9,40.3,26.8,100,78,50,30.15,29.59,17,2,18,0.00
2012-4-27,56.2,43.8,31.3,34.4,27.8,19.9,73,55,28,30.30,30.12,13,1,13,0.00
2012-4-28,48.4,45.2,40.9,40.8,37.1,30.7,92,74,53,30.22,30.04,22,3,22,0.26
2012-4-29,65.6,50.6,37.8,48.2,39.7,33.6,92,69,37,30.27,30.08,21,4,21,0.30
2012-4-30,62.7,53.4,44.2,61.1,50.9,37.2,98,91,72,30.08,29.86,14,2,14,0.29
2012-5-1,63.8,57.3,51.9,59.5,55.5,51.3,99,94,84,30.04,29.83,14,2,14,0.19
2012-5-2,79.7,69.5,58.6,68.9,63.6,57.9,100,83,57,29.92,29.80,17,2,17,0.00
2012-5-3,85.8,75.7,64.5,72.1,66.5,61.6,95,75,55,29.93,29.81,19,3,19,0.11
2012-5-4,78.8,63.8,48.3,66.9,58.5,47.3,98,84,59,29.95,29.78,23,2,23,0.06
2012-5-5,76.3,66.1,51.1,66.9,61.3,50.5,99,86,68,30.01,29.90,10,1,10,0.00
2012-5-6,78.2,67.0,56.6,64.1,57.0,49.3,92,72,52,30.02,29.73,35,3,35,0.14
2012-5-7,59.1,54.3,50.4,58.6,53.1,48.8,99,96,84,29.90,29.76,21,1,21,1.14
2012-5-8,69.3,59.2,50.9,56.8,49.8,44.3,100,75,41,29.87,29.82,15,2,15,0.00
2012-5-9,58.1,52.3,41.6,50.6,45.6,38.8,94,79,66,29.93,29.82,13,2,13,0.00
2012-5-10,61.4,50.8,38.8,47.6,39.0,32.5,97,68,36,30.06,29.92,12,1,12,0.00
2012-5-11,77.3,60.1,38.9,47.0,41.4,34.8,93,57,24,30.15,30.06,15,2,15,0.00
2012-5-12,64.8,58.8,51.8,56.6,50.2,43.0,85,74,62,30.22,30.12,15,1,15,0.00
2012-5-13,73.0,59.0,51.2,60.7,47.0,35.6,87,66,42,30.20,30.09,11,1,11,0.00
2012-5-14,74.4,61.6,47.1,50.3,40.8,35.8,75,49,26,30.10,29.99,9,1,9,0.00
2012-5-15,82.7,68.1,48.9,53.5,44.7,38.5,73,46,24,29.99,29.80,15,2,15,0.00
2012-5-16,69.7,57.7,47.8,57.8,41.8,34.5,92,57,38,30.11,29.82,13,1,13,0.02
2012-5-17,73.9,60.2,43.3,47.1,39.8,34.6,77,50,29,30.18,30.05,15,2,15,0.00
2012-5-18,83.2,67.4,48.7,48.6,41.6,35.1,69,42,22,30.10,29.97,14,2,14,0.00
2012-5-19,90.5,74.6,53.9,63.5,53.0,40.9,75,49,30,30.07,29.96,13,2,13,0.00
2012-5-20,92.3,76.8,63.1,66.8,59.2,54.6,94,59,30,30.06,29.89,19,2,19,0.26
2012-5-21,63.9,56.9,52.2,62.2,52.1,46.6,97,84,72,30.12,29.95,18,2,18,0.47
2012-5-22,64.1,56.5,48.2,51.0,46.7,43.0,89,71,54,30.06,29.92,12,1,12,0.00
2012-5-23,82.6,66.3,46.9,57.9,49.5,43.6,91,59,30,29.93,29.76,15,2,15,0.00
2012-5-24,87.7,75.2,60.2,62.3,53.9,40.7,90,52,20,29.82,29.60,23,6,26,0.00
2012-5-25,75.6,70.9,64.7,63.3,57.0,45.6,74,62,50,30.06,29.70,15,2,22,0.00
2012-5-26,88.2,73.4,58.8,67.1,58.3,45.1,84,60,46,30.18,29.98,18,3,19,0.06
2012-5-27,95.9,81.2,66.4,72.4,61.0,54.9,71,53,28,30.02,29.82,13,3,15,0.00
2012-5-28,89.9,80.9,71.3,62.0,59.8,57.6,72,50,35,29.83,29.67,11,2,16,0.00
2012-5-29,83.2,74.6,62.7,62.9,52.7,43.8,78,49,27,29.83,29.68,19,3,22,0.00
2012-5-30,67.8,60.4,50.8,54.0,50.3,46.9,93,71,53,29.93,29.81,12,1,14,0.00
2012-5-31,60.7,52.3,50.0,52.2,48.0,43.6,97,86,68,29.99,29.81,13,1,15,0.58
2012-6-1,55.8,50.2,46.6,50.2,48.2,44.4,98,93,70,29.82,29.71,14,2,15,0.20
2012-6-2,71.3,60.1,43.8,54.3,48.9,42.7,98,70,40,29.78,29.71,16,2,17,0.00
2012-6-3,78.0,67.0,52.8,56.9,51.6,43.7,96,62,34,29.83,29.77,15,2,16,0.00
2012-6-4,74.7,64.9,55.1,58.3,52.9,49.1,86,66,44,29.89,29.77,10,1,11,0.00
2012-6-5,71.8,61.1,52.0,56.3,52.4,49.7,93,75,50,30.00,29.88,9,1,12,0.00
2012-6-6,72.3,62.4,49.9,57.2,51.8,48.0,96,71,49,30.07,30.00,8,1,11,0.00
2012-6-7,76.8,65.0,52.3,57.5,51.5,47.9,90,65,39,30.12,30.04,9,1,10,0.00
2012-6-8,86.3,71.0,53.3,56.3,50.6,45.5,83,53,27,30.07,29.90,8,1,9,0.00
2012-6-9,88.5,75.6,59.5,58.0,54.2,51.1,79,50,30,29.95,29.84,12,1,12,0.00
2012-6-10,90.7,77.4,62.2,65.9,59.0,53.4,78,56,35,29.97,29.87,16,2,17,0.00
2012-6-11,86.8,76.8,66.5,71.5,66.5,60.8,86,71,54,29.89,29.76,16,2,20,0.00
2012-6-12,73.6,67.1,54.9,65.5,52.8,46.6,83,61,45,30.11,29.80,14,2,16,0.00
2012-6-13,74.8,62.0,49.4,52.2,48.1,42.5,90,63,33,30.20,30.08,7,1,14,0.00
2012-6-14,84.5,69.5,52.6,53.3,47.2,42.5,80,50,24,30.16,30.02,15,2,16,0.00
2012-6-15,90.2,76.3,57.7,59.4,53.0,44.1,82,47,28,30.10,30.01,13,2,14,0.00
2012-6-16,91.8,75.8,63.8,72.6,63.0,51.3,93,66,43,30.05,29.86,18,3,20,0.36
2012-6-17,83.9,72.3,65.0,69.8,63.6,53.3,99,77,42,29.97,29.79,11,1,11,0.56
2012-6-18,88.9,78.2,64.2,75.6,68.6,61.4,94,74,51,29.84,29.68,18,3,19,0.00
2012-6-19,91.2,81.2,71.4,75.7,69.0,64.0,82,67,52,29.96,29.83,16,2,17,0.00
2012-6-20,90.0,80.7,69.3,71.0,66.2,63.4,84,63,44,30.03,29.86,20,2,22,0.00
2012-6-21,83.7,72.7,65.5,70.0,65.9,64.0,96,80,62,29.92,29.86,12,1,12,0.22
2012-6-22,80.2,71.0,62.2,64.1,58.4,51.3,95,67,39,29.99,29.91,10,1,11,0.00
2012-6-23,84.5,72.6,58.6,64.6,58.2,54.6,89,63,39,30.01,29.95,9,1,11,0.00
2012-6-24,87.4,77.1,67.7,65.7,61.2,56.9,82,60,41,29.99,29.87,8,1,9,0.00
2012-6-25,75.0,67.6,59.7,65.1,56.1,49.1,88,68,43,30.03,29.91,12,1,13,0.00
2012-6-26,80.7,68.4,54.5,57.2,53.3,50.3,89,62,37,30.07,29.92,8,1,11,0.00
2012-6-27,88.2,73.7,56.0,60.4,56.1,52.6,90,58,34,29.99,29.78,13,2,19,0.00
2012-6-28,97.5,84.4,70.2,76.9,68.6,55.9,79,60,48,29.81,29.71,13,2,14,0.00
2012-6-29,88.0,76.5,64.6,71.5,67.2,61.1,97,75,44,29.99,29.72,16,1,25,0.21
2012-6-30,87.0,76.5,66.5,76.1,70.4,65.7,98,83,61,29.90,29.75,18,1,20,0.16
2012-7-1,90.8,75.0,66.9,76.9,70.2,63.6,98,86,54,30.06,29.83,34,0,45,0.31
2012-7-2,91.2,80.3,67.0,79.6,73.8,66.1,98,82,60,29.98,29.88,8,0,8,0.00
2012-7-3,92.5,82.9,72.1,77.2,72.2,65.0,87,71,56,29.92,29.78,8,0,12,0.00
2012-7-4,97.4,86.6,76.0,80.6,75.2,70.5,91,71,43,29.86,29.80,10,0,11,0.00
2012-7-5,99.3,86.7,75.1,75.6,72.2,66.0,88,65,35,29.91,29.83,10,1,11,0.00
2012-7-6,100.5,88.6,76.2,82.8,77.5,73.0,91,71,46,29.92,29.85,9,0,10,0.00
2012-7-7,97.2,83.8,72.4,78.2,72.9,68.4,89,71,47,29.95,29.88,12,1,14,0.00
2012-7-8,82.1,75.5,67.9,70.8,65.7,51.4,91,74,36,30.02,29.93,10,0,10,0.00
2012-7-9,88.5,75.4,62.7,65.3,60.5,57.4,90,63,38,30.03,29.97,8,0,9,0.00
2012-7-10,86.3,73.9,64.6,64.1,60.6,52.6,89,66,32,30.06,30.01,10,0,10,0.00
2012-7-11,88.4,76.0,63.1,61.8,57.6,53.3,78,55,32,30.12,30.04,13,1,13,0.00
2012-7-12,91.8,78.3,62.6,59.7,55.4,52.2,70,48,29,30.09,30.00,12,1,12,0.00
2012-7-13,93.7,79.9,67.9,72.2,64.5,54.9,83,61,39,30.06,29.96,13,1,17,0.00
2012-7-14,91.4,76.3,68.6,72.6,68.6,65.2,97,80,47,30.04,29.93,12,0,15,0.38
2012-7-15,90.1,78.4,67.6,74.3,70.1,66.9,99,78,51,30.04,29.95,12,1,12,0.00
2012-7-16,94.7,82.7,68.8,74.1,69.5,61.9,97,68,35,29.99,29.81,10,1,11,0.00
2012-7-17,97.3,84.3,73.2,78.3,72.0,67.9,94,70,39,29.83,29.73,33,1,33,0.20
2012-7-18,95.5,82.9,71.5,78.6,74.2,69.5,96,77,45,29.95,29.79,23,1,26,1.22
2012-7-19,83.0,73.9,68.8,75.4,71.1,68.1,99,92,75,29.92,29.82,12,0,16,1.36
2012-7-20,83.2,73.4,66.7,70.5,65.4,61.2,94,77,53,30.04,29.88,10,1,12,0.00
2012-7-21,84.8,74.5,62.6,71.1,65.4,60.2,94,75,50,30.09,30.00,8,0,9,0.00
2012-7-22,85.3,78.0,68.4,74.6,69.5,65.2,91,76,58,30.09,29.99,6,0,8,0.00
2012-7-23,94.1,83.0,73.0,76.2,72.0,68.1,89,71,51,30.00,29.84,11,1,11,0.04
2012-7-24,83.2,76.0,70.0,74.0,70.4,66.4,98,83,69,30.02,29.83,11,0,22,0.45
2012-7-25,93.7,79.0,68.4,81.0,70.8,64.2,91,77,58,29.92,29.58,16,2,16,0.07
2012-7-26,83.5,76.0,67.4,75.5,71.3,66.7,98,86,71,29.74,29.56,15,1,24,1.04
2012-7-27,80.8,72.3,64.7,72.5,67.9,64.1,99,87,65,29.93,29.73,10,0,13,0.03
2012-7-28,78.5,71.2,63.9,66.7,62.6,58.3,96,76,51,30.09,29.93,9,0,11,0.00
2012-7-29,83.4,72.5,59.4,68.8,62.1,56.9,98,73,44,30.10,29.96,11,0,11,0.00
2012-7-30,89.4,78.4,69.4,71.6,67.3,62.3,84,70,51,29.97,29.83,8,0,8,0.00
2012-7-31,81.1,73.2,64.4,73.5,67.1,62.1,96,82,67,29.91,29.83,19,1,24,0.12
2012-8-1,83.7,73.8,63.8,66.7,63.4,57.3,97,73,46,29.94,29.85,7,0,7,0.00
2012-8-2,88.0,75.9,64.0,71.6,66.6,60.4,91,75,51,29.88,29.79,7,0,7,0.00
2012-8-3,91.7,80.3,66.9,72.3,68.5,64.5,93,70,48,29.87,29.80,8,0,8,0.00
2012-8-4,91.3,76.9,69.6,79.0,71.6,67.5,99,85,61,29.88,29.72,17,1,23,0.84
2012-8-5,79.3,72.7,62.8,70.0,65.4,59.6,99,80,58,30.13,29.84,13,2,16,0.28
2012-8-6,81.2,70.0,57.2,63.0,59.4,55.8,98,72,46,30.15,29.98,6,0,7,0.00
2012-8-7,87.8,74.2,59.5,69.8,63.9,56.9,93,72,49,29.98,29.86,8,0,8,0.00
2012-8-8,85.0,74.3,67.5,70.6,67.2,64.3,96,80,54,29.95,29.87,6,0,8,0.04
2012-8-9,72.8,67.2,62.2,68.7,64.1,60.4,96,90,83,29.90,29.78,8,0,10,0.09
2012-8-10,69.2,62.8,57.9,62.7,59.0,53.8,96,88,60,29.91,29.74,12,0,13,0.13
2012-8-11,72.0,65.1,59.3,63.3,60.3,57.3,97,85,71,29.98,29.87,13,2,16,0.01
2012-8-12,75.1,66.1,56.0,63.9,59.1,54.6,98,80,58,30.03,29.96,6,0,7,0.00
2012-8-13,65.7,63.4,61.4,64.5,61.5,59.4,98,94,81,29.98,29.91,4,0,6,0.86
2012-8-14,78.9,69.0,59.6,66.8,62.3,58.7,100,81,52,29.93,29.87,9,0,9,0.00
2012-8-15,82.6,72.2,61.4,69.5,64.8,60.2,97,79,53,29.94,29.87,8,0,9,0.00
2012-8-16,72.1,67.2,64.0,68.9,63.9,59.5,98,89,79,29.91,29.77,10,1,12,0.15
2012-8-17,70.8,65.2,55.9,60.6,57.2,52.7,95,76,57,29.99,29.87,12,1,13,0.00
2012-8-18,74.5,62.0,48.7,55.4,51.0,47.1,98,71,40,30.03,29.92,8,0,9,0.00
2012-8-19,75.1,65.0,55.2,64.6,54.7,50.6,91,71,43,29.96,29.88,8,0,8,0.01
2012-8-20,72.7,62.8,55.3,63.8,57.0,52.7,97,82,55,29.98,29.91,11,0,12,0.18
2012-8-21,76.5,64.6,54.0,60.9,55.5,52.7,100,76,45,30.08,29.98,7,0,8,0.00
2012-8-22,80.7,66.9,52.7,63.3,56.2,51.5,98,72,43,30.13,30.03,9,0,11,0.00
2012-8-23,87.9,73.1,58.5,66.7,60.0,54.4,88,66,40,30.11,30.01,9,0,11,0.00
2012-8-24,90.2,76.2,62.5,68.8,62.5,57.3,85,65,41,30.05,29.96,10,0,10,0.00
2012-8-25,90.8,76.8,63.7,69.8,63.7,59.1,88,66,39,30.04,29.98,7,0,8,0.00
2012-8-26,88.1,73.4,64.9,72.9,67.6,60.3,98,84,53,30.04,29.94,19,1,19,0.48
2012-8-27,80.6,72.7,65.4,72.8,67.2,58.5,99,85,49,30.04,29.92,9,0,10,0.55
2012-8-28,80.5,70.4,61.6,67.0,62.5,59.9,99,78,54,30.12,30.01,7,0,7,0.00
2012-8-29,81.1,70.3,59.7,65.5,61.4,57.2,95,76,51,30.09,29.99,7,0,9,0.00
2012-8-30,86.2,71.9,57.8,67.3,60.8,56.0,95,71,41,30.06,29.94,11,1,11,0.00
2012-8-31,90.3,75.9,62.2,76.3,67.9,57.2,91,77,57,30.05,29.97,9,0,9,0.00
2012-9-1,77.8,74.6,72.1,74.6,72.2,70.4,96,93,86,30.04,29.92,13,1,14,0.02
2012-9-2,82.3,75.7,71.3,75.0,71.8,69.5,96,88,77,29.94,29.82,13,2,17,0.00
2012-9-3,89.0,76.9,68.0,75.9,71.0,66.4,95,83,61,29.88,29.81,10,1,11,0.00
2012-9-4,84.0,75.5,69.0,75.3,70.4,67.3,98,85,62,29.88,29.80,7,0,10,0.06
2012-9-5,80.9,71.7,64.5,70.6,66.8,63.6,99,85,68,29.91,29.73,14,2,19,0.08
2012-9-6,81.3,73.1,64.0,70.4,64.5,59.8,97,76,50,29.89,29.79,8,1,10,0.00
2012-9-7,82.3,66.7,58.9,67.8,62.1,57.1,96,86,53,29.90,29.68,12,1,13,0.04
2012-9-8,67.8,62.3,58.4,57.9,55.3,51.8,97,79,58,29.86,29.74,15,2,19,0.07
2012-9-9,69.9,61.6,54.4,60.9,55.7,51.3,99,82,60,30.12,29.83,11,0,13,0.16
2012-9-10,75.1,62.8,49.8,54.5,50.7,47.8,93,68,40,30.22,30.10,9,1,11,0.00
2012-9-11,81.8,66.4,50.8,61.3,54.7,49.1,97,69,42,30.18,30.06,16,1,18,0.00
2012-9-12,84.7,69.6,53.9,63.0,57.0,51.6,94,68,36,30.18,30.09,13,1,17,0.00
2012-9-13,65.6,63.4,57.1,59.5,58.3,55.3,94,84,77,30.27,30.14,5,0,7,0.20
2012-9-14,70.3,60.1,51.1,55.8,50.3,40.6,96,73,35,30.31,30.25,9,0,12,0.03
2012-9-15,75.6,60.8,47.4,56.5,49.8,45.3,96,71,38,30.31,30.13,7,0,7,0.00
2012-9-16,77.6,61.8,46.7,59.1,50.1,45.1,97,70,35,30.13,29.97,11,0,11,0.00
2012-9-17,76.7,64.0,51.5,63.4,56.8,48.9,93,79,57,29.98,29.71,10,1,11,0.01
2012-9-18,61.0,56.8,50.0,58.8,47.5,38.3,98,73,47,30.01,29.69,19,2,23,0.12
2012-9-19,70.6,57.2,40.3,45.2,41.4,37.5,94,59,32,30.10,29.88,20,3,21,0.00
2012-9-20,69.8,61.3,50.9,53.0,46.2,41.0,78,59,38,29.91,29.84,15,2,18,0.00
2012-9-21,66.3,54.0,45.8,53.1,46.2,39.6,96,77,39,29.93,29.77,11,1,11,0.07
2012-9-22,54.2,49.1,45.0,50.1,45.9,40.4,98,89,71,30.14,29.76,23,2,24,0.14
2012-9-23,56.4,49.0,39.5,43.1,39.8,36.3,92,72,51,30.25,30.13,16,2,17,0.00
2012-9-24,68.8,52.3,35.6,41.2,36.4,31.1,95,61,27,30.23,29.93,12,1,16,0.00
2012-9-25,74.3,60.3,47.6,62.4,51.9,39.6,95,75,53,29.95,29.83,11,1,15,0.00
2012-9-26,67.7,61.8,55.2,63.2,57.0,48.7,99,85,64,30.13,29.85,8,0,8,0.00
2012-9-27,68.5,58.1,50.7,56.8,51.5,47.3,91,79,63,30.17,30.11,8,0,10,0.00
2012-9-28,68.8,57.0,46.5,57.1,51.4,45.4,99,83,57,30.13,30.07,8,0,11,0.00
2012-9-29,70.2,57.0,45.1,53.0,47.7,44.0,99,75,41,30.10,29.95,10,-61,12,0.68
2012-9-30,70.0,56.4,45.2,51.9,47.8,42.4,97,76,41,29.96,29.89,11,1,13,0.00
2012-10-1,65.9,56.1,45.0,50.7,47.5,42.9,94,75,52,29.92,29.79,9,0,9,0.00
2012-10-2,71.0,61.0,51.2,56.6,51.3,47.1,89,72,46,29.87,29.78,13,1,15,0.01
2012-10-3,60.6,58.5,56.9,58.3,57.1,56.0,98,95,87,30.03,29.86,11,1,12,0.09
2012-10-4,80.0,64.1,53.4,61.1,55.9,49.9,98,78,44,30.08,29.96,15,2,18,0.05
2012-10-5,54.2,46.9,42.5,50.1,41.4,33.1,91,82,63,30.12,30.04,9,1,10,0.03
2012-10-6,47.1,42.2,35.0,36.6,33.1,29.7,84,70,58,30.16,30.03,11,2,13,0.00
2012-10-7,47.8,42.7,30.8,40.8,33.4,27.1,86,70,53,30.17,30.11,10,2,13,0.01
2012-10-8,58.4,42.2,26.8,35.1,29.3,24.5,93,65,34,30.21,30.06,16,1,16,0.00
2012-10-9,65.0,51.5,38.7,47.6,39.2,30.8,94,65,43,30.07,29.83,17,3,23,0.18
2012-10-10,49.9,43.2,34.1,43.8,34.5,27.9,100,74,44,30.19,29.89,18,3,23,0.10
2012-10-11,63.8,47.9,30.6,47.1,35.4,28.5,92,66,36,30.22,30.07,13,2,14,0.00
2012-10-12,55.4,46.4,38.5,42.3,33.3,25.8,88,63,35,30.44,30.22,15,1,17,0.00
2012-10-13,64.1,52.7,39.2,62.7,47.0,28.1,100,82,61,30.29,29.82,13,3,17,0.56
2012-10-14,72.6,62.0,49.5,64.2,59.0,47.0,98,91,66,29.83,29.42,27,6,33,0.80
2012-10-15,53.2,47.3,37.6,47.0,42.8,36.3,97,85,65,29.98,29.72,13,2,19,0.02
2012-10-16,66.3,51.3,35.3,51.4,43.1,34.5,98,76,51,29.99,29.62,20,4,21,0.00
2012-10-17,71.8,59.4,53.0,57.0,53.2,48.9,97,81,54,29.63,29.34,24,6,26,0.54
2012-10-18,57.2,49.7,43.8,55.7,44.5,34.5,97,84,46,29.58,29.31,19,4,22,0.21
2012-10-19,49.9,45.6,43.0,48.1,44.0,42.0,99,94,84,29.62,29.47,12,2,14,0.38
2012-10-20,57.8,46.8,39.4,46.5,41.8,37.3,99,84,56,29.95,29.62,13,2,13,0.00
2012-10-21,69.1,50.7,34.6,52.5,44.4,33.8,99,81,54,30.09,29.95,13,2,14,0.00
2012-10-22,67.4,58.4,48.4,61.3,55.1,46.4,96,89,71,30.01,29.87,14,2,15,0.10
2012-10-23,67.0,61.5,58.2,62.5,59.4,56.7,98,93,84,29.95,29.87,12,1,14,0.01
2012-10-24,79.9,67.2,57.8,66.1,61.4,56.0,98,83,62,29.97,29.87,18,3,21,0.00
2012-10-25,78.2,66.6,47.0,63.4,58.8,45.6,95,77,60,29.97,29.71,25,7,29,0.32
2012-10-26,48.4,44.1,41.9,45.6,36.9,34.3,95,76,62,30.29,29.96,17,4,19,0.09
2012-10-27,49.6,42.5,36.9,39.1,35.2,31.8,84,76,62,30.28,30.20,11,1,13,0.00
2012-10-28,49.4,42.1,35.4,34.8,31.6,26.5,89,67,48,30.26,30.19,12,2,14,0.00
2012-10-29,49.5,43.8,36.4,37.8,32.6,27.8,83,65,51,30.22,29.91,22,5,24,0.00
2012-10-30,45.2,42.9,40.6,40.4,37.7,31.9,98,83,62,29.92,29.68,25,8,26,0.48
2012-10-31,44.7,40.6,38.6,38.5,37.4,33.0,94,89,67,29.82,29.69,18,6,24,0.22
2012-11-1,49.4,42.7,37.2,36.0,30.2,16.5,87,63,28,29.87,29.80,16,3,17,0.01
2012-11-2,45.9,42.0,38.0,40.1,36.0,31.5,94,80,63,30.15,29.87,16,1,16,0.03
2012-11-3,42.6,37.5,31.8,35.1,32.4,29.4,92,82,69,30.23,30.14,8,1,12,0.00
2012-11-4,44.2,38.1,32.5,35.5,32.4,27.8,89,80,68,30.23,30.18,6,0,7,0.00
2012-11-5,48.6,35.6,27.0,34.5,29.8,25.0,100,81,54,30.22,30.12,8,0,11,0.00
2012-11-6,47.9,36.2,24.0,37.5,31.6,22.5,97,85,60,30.15,29.93,9,1,13,0.07
2012-11-7,51.9,40.6,31.9,41.7,36.1,30.6,100,85,59,30.17,29.92,9,0,11,0.04
2012-11-8,44.7,37.4,29.4,40.9,34.9,28.4,98,91,77,30.23,30.14,9,0,9,0.00
2012-11-9,59.2,46.3,30.6,46.9,40.3,29.3,98,81,60,30.16,30.01,15,2,19,0.00
2012-11-10,68.7,58.1,50.4,56.5,48.9,44.1,82,72,59,30.04,29.92,18,5,20,0.00
2012-11-11,68.8,60.2,51.2,54.6,50.7,46.5,96,72,58,30.00,29.80,31,10,34,0.07
2012-11-12,51.1,36.1,30.5,49.9,29.0,21.9,96,76,58,30.34,29.88,19,7,21,0.17
2012-11-13,41.7,31.5,24.9,26.8,22.4,19.1,85,70,48,30.54,30.33,19,2,19,0.00
2012-11-14,45.4,32.1,23.4,30.8,25.4,20.1,92,78,52,30.58,30.42,14,1,14,0.00
2012-11-15,49.2,33.6,23.8,35.0,27.9,22.3,97,81,50,30.43,30.35,7,0,8,0.00
2012-11-16,55.5,37.5,24.4,36.6,29.4,22.9,97,76,41,30.51,30.40,6,0,7,0.00
2012-11-17,56.8,40.2,26.6,40.8,32.2,25.1,95,75,47,30.58,30.48,11,1,12,0.00
2012-11-18,60.5,43.6,32.3,38.7,32.4,29.7,92,68,37,30.49,30.35,10,1,12,0.00
2012-11-19,60.5,46.4,36.0,41.2,36.6,31.0,85,70,46,30.35,30.13,10,2,12,0.00
2012-11-20,55.9,46.9,36.7,47.4,43.0,35.6,97,87,71,30.17,30.06,7,0,8,0.04
2012-11-21,55.5,42.2,32.6,49.5,40.6,32.1,99,94,79,30.27,30.14,9,1,9,0.00
2012-11-22,59.9,50.2,39.1,50.3,44.9,38.3,99,83,62,30.14,29.80,21,5,29,0.03
2012-11-23,53.5,34.6,30.6,49.4,26.7,20.7,86,73,66,30.17,29.81,27,9,27,0.00
2012-11-24,31.2,28.4,23.1,24.6,22.1,18.3,85,77,65,30.25,30.05,16,4,18,0.00
2012-11-25,41.9,32.9,27.1,29.6,26.4,22.5,92,78,60,30.07,29.89,13,2,14,0.00
2012-11-26,37.7,33.8,26.9,29.7,26.4,24.0,93,75,63,30.34,30.06,11,1,13,0.00
2012-11-27,39.1,31.0,25.6,27.3,20.9,14.6,90,67,49,30.41,30.28,8,0,10,0.00
2012-11-28,42.5,32.3,26.0,29.0,21.9,16.7,82,66,43,30.39,30.28,11,2,13,0.00
2012-11-29,51.4,38.8,26.3,35.7,30.3,22.7,88,73,51,30.33,30.14,16,2,16,0.00
2012-11-30,54.0,42.7,35.2,37.9,34.2,30.4,85,73,53,30.16,30.07,9,1,9,0.00
2012-12-1,58.5,48.0,32.6,51.9,43.0,30.3,96,84,71,30.17,29.94,16,4,19,0.00
2012-12-2,60.9,55.0,48.7,56.4,51.6,47.3,98,89,70,30.06,29.89,14,1,16,0.05
2012-12-3,65.7,59.2,48.4,62.5,57.0,47.8,99,93,80,30.05,29.83,19,5,24,0.04
2012-12-4,62.6,50.0,41.2,58.5,41.9,33.3,97,76,44,30.24,29.87,14,3,17,0.57
2012-12-5,43.1,35.6,29.7,34.0,28.2,24.9,85,75,58,30.42,30.24,13,2,14,0.00
2012-12-6,42.5,36.2,29.2,38.4,32.0,25.3,90,85,77,30.26,29.94,12,3,14,0.00
2012-12-7,45.2,42.5,40.6,44.3,41.3,38.0,98,96,89,29.97,29.85,5,0,5,0.12
2012-12-8,42.6,39.5,34.0,42.0,37.5,31.1,98,93,87,30.12,29.81,12,2,12,0.06
2012-12-9,42.9,38.1,33.6,42.6,36.8,30.8,99,95,89,30.12,29.71,18,4,19,0.10
2012-12-10,38.6,32.8,30.2,36.7,30.8,27.9,97,92,84,29.94,29.70,15,4,17,0.00
2012-12-11,34.0,29.5,26.1,29.4,25.4,23.6,95,85,71,30.20,29.92,12,2,14,0.11
2012-12-12,43.3,31.1,21.4,32.7,26.2,19.7,95,83,62,30.36,30.20,14,2,14,0.04
2012-12-13,46.5,35.3,26.9,33.5,28.3,24.1,90,76,57,30.35,30.16,17,3,19,0.00
2012-12-14,49.5,36.3,25.6,37.0,30.6,23.9,96,81,60,30.25,30.09,10,1,11,0.00
2012-12-15,49.6,43.3,35.0,48.7,40.0,30.8,98,88,73,30.09,29.62,20,4,21,0.25
2012-12-16,49.3,44.4,37.8,48.1,42.2,35.1,96,92,87,29.73,29.60,14,3,14,0.01
2012-12-17,40.2,38.1,36.4,36.4,35.1,33.0,94,89,83,29.74,29.64,6,0,6,0.00
2012-12-18,40.2,36.0,31.5,37.7,33.2,29.0,95,90,84,29.81,29.65,16,3,19,0.00
2012-12-19,42.2,39.6,37.2,38.4,37.1,35.3,95,91,85,30.07,29.77,25,3,25,0.00
2012-12-20,50.4,40.8,33.9,49.5,39.1,32.6,98,94,81,29.83,29.06,30,9,33,1.11
2012-12-21,34.2,31.0,28.4,32.9,28.6,25.0,97,91,86,30.14,29.30,34,11,40,0.12
2012-12-22,30.9,25.6,19.4,25.1,22.2,17.8,100,87,75,30.23,29.99,18,2,18,0.08
2012-12-23,35.0,26.5,16.4,31.4,24.0,15.0,96,90,83,30.05,29.93,7,0,9,0.03
2012-12-24,34.6,29.6,25.4,29.6,26.2,22.9,92,87,81,30.08,29.84,9,1,10,0.01
2012-12-25,37.3,28.7,21.5,27.2,23.5,20.0,95,81,65,30.31,30.07,13,1,17,0.01
2012-12-26,29.8,28.2,26.6,26.8,24.2,20.7,93,85,78,30.20,29.92,16,3,18,0.00
2012-12-27,36.8,30.7,27.7,30.5,27.3,24.7,94,87,75,30.19,30.05,5,0,6,0.05
2012-12-28,31.2,29.3,26.6,28.9,27.2,25.1,95,92,88,30.15,29.88,10,1,10,0.03
2012-12-29,31.4,28.2,22.7,30.6,26.3,19.6,97,93,87,30.22,29.86,17,4,21,0.00
2012-12-30,30.8,22.8,13.4,24.9,19.2,11.3,93,86,75,30.40,30.17,13,3,14,0.06
2012-12-31,35.9,30.6,25.6,29.5,25.9,22.1,87,83,75,30.18,30.02,17,4,18,0.01
2013-1-1,28.9,24.6,12.7,25.3,19.2,9.0,92,80,72,30.19,30.08,11,2,13,0.00